This is the latest recevied weather packets stored in our database for station/object E23XBQ-1. If no packets are shown the sender has not sent any weather packets the latest 10 day(s).
| Time | Temp. | Humidity | Pressure | Rain* | Wind** | Luminosity | Snow |
|---|---|---|---|---|---|---|---|
| 1777502667 | 23.89° C | 99% | 972 hPa | - | - | 0 W/m² | - |
| 1777502035 | 23.89° C | 99% | 972 hPa | - | - | 0 W/m² | - |
| 1777501410 | 23.33° C | 99% | 972 hPa | - | - | 0 W/m² | - |
| 1777500785 | 23.33° C | 99% | 972 hPa | - | - | 0 W/m² | - |
| 1777500160 | 23.89° C | 99% | 972 hPa | - | - | 0 W/m² | - |
| 1777499536 | 23.89° C | 99% | 971 hPa | - | - | 0 W/m² | - |
| 1777498911 | 23.89° C | 99% | 971 hPa | - | - | 0 W/m² | - |
| 1777498287 | 23.89° C | 99% | 971 hPa | - | - | 0 W/m² | - |
| 1777497662 | 23.89° C | 99% | 971 hPa | - | - | 0 W/m² | - |
| 1777497037 | 24.44° C | 99% | 971 hPa | - | - | 0 W/m² | - |
| 1777496412 | 24.44° C | 99% | 971 hPa | - | - | 0 W/m² | - |
| 1777495788 | 24.44° C | 99% | 971 hPa | - | - | 0 W/m² | - |
| 1777495164 | 24.44° C | 99% | 971 hPa | - | - | 0 W/m² | - |
| 1777494539 | 24.44° C | 99% | 971 hPa | - | - | 0 W/m² | - |
| 1777493915 | 24.44° C | 99% | 971 hPa | - | - | 0 W/m² | - |
| 1777493290 | 24.44° C | 99% | 971 hPa | - | - | 0 W/m² | - |
| 1777492666 | 24.44° C | 99% | 971 hPa | - | - | 0 W/m² | - |
| 1777492040 | 25° C | 98% | 971 hPa | - | - | 0 W/m² | - |
| 1777491415 | 24.44° C | 98% | 971 hPa | - | - | 0 W/m² | - |
| 1777490790 | 25° C | 99% | 972 hPa | - | - | 0 W/m² | - |
| 1777490166 | 25° C | 97% | 972 hPa | - | - | 0 W/m² | - |
| 1777489540 | 25° C | 97% | 971 hPa | - | - | 0 W/m² | - |
| 1777488916 | 25° C | 91% | 971 hPa | - | - | 0 W/m² | - |
| 1777488290 | 25° C | 97% | 972 hPa | - | - | 0 W/m² | - |
| 1777487666 | 25° C | 99% | 972 hPa | - | - | 0 W/m² | - |
* Rain since midnight (hover to see other rain measurements)
** Current wind speed in m/s (hover to see current wind gust speed)